Time,TemperatureF,DewpointF,PressureIn,WindDirection,WindDirectionDegrees,WindSpeedMPH,WindSpeedGustMPH,Humidity,HourlyPrecipIn,Conditions,Clouds,dailyrainin,SoftwareType,DateUTC
2013-04-11 00:00:00,58.8,57.9,29.90,SSW,194,6.0,6.0,97,0.17,,,0.55,meteohub,2013-04-11 04:00:00,
2013-04-11 00:05:00,59.0,58.1,29.89,WSW,243,1.0,11.0,97,0.14,,,0.00,meteohub,2013-04-11 04:05:00,
2013-04-11 00:10:00,59.2,58.6,29.90,SSW,201,2.0,11.0,98,0.12,,,0.00,meteohub,2013-04-11 04:10:00,
2013-04-11 00:15:00,59.2,58.6,29.90,SSE,163,2.0,10.0,98,0.11,,,0.00,meteohub,2013-04-11 04:15:00,
2013-04-11 00:20:00,59.4,58.8,29.90,South,188,2.0,9.0,98,0.10,,,0.00,meteohub,2013-04-11 04:20:00,
2013-04-11 00:25:00,59.5,59.0,29.91,SW,236,2.0,9.0,98,0.08,,,0.00,meteohub,2013-04-11 04:25:00,
2013-04-11 00:30:00,59.5,59.0,29.91,West,264,1.0,7.0,98,0.06,,,0.00,meteohub,2013-04-11 04:30:00,
2013-04-11 00:35:00,59.7,59.2,29.92,WNW,290,2.0,4.0,98,0.05,,,0.00,meteohub,2013-04-11 04:35:00,
2013-04-11 00:40:00,59.9,59.4,29.92,WNW,295,1.0,4.0,98,0.03,,,0.00,meteohub,2013-04-11 04:40:00,
2013-04-11 00:45:00,59.9,59.4,29.91,West,269,1.0,3.0,98,0.02,,,0.00,meteohub,2013-04-11 04:45:00,
2013-04-11 00:50:00,60.1,59.5,29.91,West,262,0.0,3.0,98,0.01,,,0.01,meteohub,2013-04-11 04:50:00,
2013-04-11 00:56:00,60.1,59.5,29.90,SW,224,0.0,2.0,98,0.02,,,0.02,meteohub,2013-04-11 04:56:00,
2013-04-11 01:01:00,60.1,59.5,29.90,SW,225,0.0,2.0,98,0.02,,,0.02,meteohub,2013-04-11 05:01:00,
2013-04-11 01:06:00,60.1,59.5,29.89,SSW,207,1.0,3.0,98,0.02,,,0.02,meteohub,2013-04-11 05:06:00,
2013-04-11 01:11:00,60.3,59.7,29.89,SW,222,0.0,3.0,98,0.02,,,0.02,meteohub,2013-04-11 05:11:00,
2013-04-11 01:16:00,60.3,59.7,29.89,SSW,208,1.0,3.0,98,0.02,,,0.02,meteohub,2013-04-11 05:16:00,
2013-04-11 01:21:00,60.3,59.7,29.89,West,263,1.0,3.0,98,0.02,,,0.02,meteohub,2013-04-11 05:21:00,
2013-04-11 01:26:00,60.3,59.7,29.89,SW,224,1.0,5.0,98,0.02,,,0.02,meteohub,2013-04-11 05:26:00,
2013-04-11 01:31:00,60.4,59.9,29.89,West,264,1.0,5.0,98,0.02,,,0.02,meteohub,2013-04-11 05:31:00,
2013-04-11 01:36:00,60.4,59.9,29.89,WSW,256,0.0,5.0,98,0.02,,,0.02,meteohub,2013-04-11 05:36:00,
2013-04-11 01:41:00,60.4,59.9,29.88,SW,228,0.0,2.0,98,0.02,,,0.02,meteohub,2013-04-11 05:41:00,
2013-04-11 01:46:00,60.4,59.9,29.88,WNW,293,2.0,2.0,98,0.02,,,0.02,meteohub,2013-04-11 05:46:00,
2013-04-11 01:52:00,60.4,59.9,29.89,WSW,240,2.0,2.0,98,0.01,,,0.02,meteohub,2013-04-11 05:52:00,
2013-04-11 01:57:00,60.6,60.1,29.88,WNW,290,0.0,2.0,98,0.00,,,0.02,meteohub,2013-04-11 05:57:00,
2013-04-11 02:02:00,60.6,60.1,29.87,WSW,246,0.0,2.0,98,0.00,,,0.02,meteohub,2013-04-11 06:02:00,
2013-04-11 02:07:00,60.6,60.1,29.87,West,267,0.0,2.0,98,0.00,,,0.02,meteohub,2013-04-11 06:07:00,
2013-04-11 02:12:00,60.6,60.1,29.86,West,266,0.0,2.0,98,0.00,,,0.02,meteohub,2013-04-11 06:12:00,
2013-04-11 02:17:00,60.6,60.1,29.85,West,266,0.0,2.0,98,0.00,,,0.02,meteohub,2013-04-11 06:17:00,
2013-04-11 02:22:00,60.6,60.1,29.83,West,266,0.0,1.0,98,0.00,,,0.02,meteohub,2013-04-11 06:22:00,
2013-04-11 02:27:00,60.6,60.1,29.82,West,264,0.0,0.0,98,0.00,,,0.02,meteohub,2013-04-11 06:27:00,
2013-04-11 02:32:00,60.6,60.1,29.80,ESE,113,0.0,2.0,98,0.00,,,0.02,meteohub,2013-04-11 06:32:00,
2013-04-11 02:37:00,60.6,60.1,29.81,WNW,284,2.0,2.0,98,0.00,,,0.02,meteohub,2013-04-11 06:37:00,
2013-04-11 02:42:00,60.6,60.1,29.81,West,280,0.0,3.0,98,0.00,,,0.02,meteohub,2013-04-11 06:42:00,
2013-04-11 02:47:00,60.6,60.1,29.81,West,280,0.0,3.0,98,0.00,,,0.02,meteohub,2013-04-11 06:47:00,
2013-04-11 02:52:00,60.6,60.1,29.81,WNW,296,0.0,3.0,98,0.00,,,0.02,meteohub,2013-04-11 06:52:00,
2013-04-11 02:57:00,60.8,60.3,29.81,WNW,296,0.0,2.0,98,0.00,,,0.02,meteohub,2013-04-11 06:57:00,
2013-04-11 03:02:00,60.6,60.1,29.82,WNW,296,0.0,2.0,98,0.00,,,0.02,meteohub,2013-04-11 07:02:00,
2013-04-11 03:07:00,60.6,60.1,29.83,WNW,296,1.0,2.0,98,0.00,,,0.02,meteohub,2013-04-11 07:07:00,
2013-04-11 03:12:00,60.6,60.1,29.83,NW,304,0.0,2.0,98,0.00,,,0.02,meteohub,2013-04-11 07:12:00,
2013-04-11 03:17:00,60.4,59.9,29.83,NW,304,0.0,1.0,98,0.00,,,0.02,meteohub,2013-04-11 07:17:00,
2013-04-11 03:22:00,60.4,59.9,29.84,NW,304,0.0,1.0,98,0.00,,,0.02,meteohub,2013-04-11 07:22:00,
2013-04-11 03:27:00,60.4,59.9,29.83,NW,304,0.0,1.0,98,0.00,,,0.02,meteohub,2013-04-11 07:27:00,
2013-04-11 03:32:00,60.4,59.9,29.83,NW,304,0.0,1.0,98,0.00,,,0.02,meteohub,2013-04-11 07:32:00,
2013-04-11 03:37:00,60.4,59.9,29.84,NW,304,0.0,1.0,98,0.00,,,0.02,meteohub,2013-04-11 07:37:00,
2013-04-11 03:42:00,60.4,60.1,29.84,NW,304,0.0,1.0,99,0.00,,,0.02,meteohub,2013-04-11 07:42:00,
2013-04-11 03:47:00,60.4,59.9,29.84,NW,304,0.0,1.0,98,0.00,,,0.02,meteohub,2013-04-11 07:47:00,
2013-04-11 03:52:00,60.4,59.9,29.84,NW,304,0.0,1.0,98,0.00,,,0.02,meteohub,2013-04-11 07:52:00,
2013-04-11 03:57:00,60.4,59.9,29.85,NW,304,0.0,0.0,98,0.00,,,0.02,meteohub,2013-04-11 07:57:00,
2013-04-11 04:02:00,60.4,59.9,29.85,WNW,297,0.0,1.0,98,0.00,,,0.02,meteohub,2013-04-11 08:02:00,
2013-04-11 04:07:00,60.4,60.1,29.86,WNW,298,0.0,2.0,99,0.00,,,0.02,meteohub,2013-04-11 08:07:00,
2013-04-11 04:12:00,60.4,60.1,29.86,West,270,0.0,2.0,99,0.00,,,0.02,meteohub,2013-04-11 08:12:00,
2013-04-11 04:17:00,60.4,60.1,29.86,West,270,0.0,2.0,99,0.00,,,0.02,meteohub,2013-04-11 08:17:00,
2013-04-11 04:22:00,60.4,60.1,29.86,West,281,0.0,1.0,99,0.00,,,0.02,meteohub,2013-04-11 08:22:00,
2013-04-11 04:27:00,60.4,60.1,29.87,West,276,0.0,2.0,99,0.00,,,0.02,meteohub,2013-04-11 08:27:00,
2013-04-11 04:33:00,60.4,60.1,29.87,West,275,0.0,2.0,99,0.00,,,0.02,meteohub,2013-04-11 08:33:00,
2013-04-11 04:38:00,60.6,60.3,29.88,NW,304,0.0,2.0,99,0.00,,,0.02,meteohub,2013-04-11 08:38:00,
2013-04-11 04:43:00,60.6,60.3,29.88,WNW,291,0.0,3.0,99,0.00,,,0.02,meteohub,2013-04-11 08:43:00,
2013-04-11 04:48:00,60.6,60.3,29.88,West,270,0.0,3.0,99,0.00,,,0.02,meteohub,2013-04-11 08:48:00,
2013-04-11 04:53:00,60.6,60.3,29.88,West,270,0.0,3.0,99,0.00,,,0.02,meteohub,2013-04-11 08:53:00,
2013-04-11 04:58:00,60.4,60.1,29.89,West,270,0.0,2.0,99,0.00,,,0.02,meteohub,2013-04-11 08:58:00,
2013-04-11 05:03:00,60.4,60.1,29.89,West,270,0.0,1.0,99,0.00,,,0.02,meteohub,2013-04-11 09:03:00,
2013-04-11 05:08:00,60.4,60.1,29.89,West,270,1.0,0.0,99,0.00,,,0.02,meteohub,2013-04-11 09:08:00,
2013-04-11 05:13:00,60.6,60.3,29.89,WNW,295,0.0,1.0,99,0.00,,,0.02,meteohub,2013-04-11 09:13:00,
2013-04-11 05:18:00,60.6,60.3,29.89,WNW,295,0.0,2.0,99,0.00,,,0.02,meteohub,2013-04-11 09:18:00,
2013-04-11 05:23:00,60.6,60.3,29.89,WNW,295,0.0,2.0,99,0.00,,,0.02,meteohub,2013-04-11 09:23:00,
2013-04-11 05:28:00,60.6,60.3,29.89,WNW,295,0.0,2.0,99,0.00,,,0.02,meteohub,2013-04-11 09:28:00,
2013-04-11 05:33:00,60.6,60.3,29.90,WNW,295,0.0,0.0,99,0.00,,,0.02,meteohub,2013-04-11 09:33:00,
2013-04-11 05:38:00,60.6,60.3,29.90,WNW,295,0.0,1.0,99,0.00,,,0.02,meteohub,2013-04-11 09:38:00,
2013-04-11 05:43:00,60.6,60.3,29.90,WNW,295,0.0,1.0,99,0.00,,,0.02,meteohub,2013-04-11 09:43:00,
2013-04-11 05:48:00,60.8,60.4,29.91,WNW,295,0.0,1.0,99,0.00,,,0.02,meteohub,2013-04-11 09:48:00,
2013-04-11 05:53:00,60.8,60.4,29.91,WNW,295,0.0,1.0,99,0.00,,,0.02,meteohub,2013-04-11 09:53:00,
2013-04-11 05:58:00,60.6,60.3,29.91,WNW,295,0.0,1.0,99,0.00,,,0.02,meteohub,2013-04-11 09:58:00,
2013-04-11 06:03:00,60.8,60.4,29.92,NW,309,0.0,1.0,99,0.00,,,0.02,meteohub,2013-04-11 10:03:00,
2013-04-11 06:08:00,60.8,60.4,29.92,North,356,1.0,1.0,99,0.00,,,0.02,meteohub,2013-04-11 10:08:00,
2013-04-11 06:13:00,60.8,60.4,29.92,North,0,2.0,3.0,99,0.00,,,0.02,meteohub,2013-04-11 10:13:00,
2013-04-11 06:18:00,60.6,60.3,29.93,North,355,0.0,3.0,99,0.00,,,0.02,meteohub,2013-04-11 10:18:00,
2013-04-11 06:23:00,60.6,60.3,29.93,NNE,22,0.0,4.0,99,0.00,,,0.02,meteohub,2013-04-11 10:23:00,
2013-04-11 06:28:00,60.4,60.1,29.94,NNE,18,3.0,4.0,99,0.00,,,0.02,meteohub,2013-04-11 10:28:00,
2013-04-11 06:33:00,60.3,59.7,29.94,NNE,23,2.0,4.0,98,0.00,,,0.02,meteohub,2013-04-11 10:33:00,
2013-04-11 06:38:00,60.1,59.5,29.94,NE,49,1.0,4.0,98,0.00,,,0.02,meteohub,2013-04-11 10:38:00,
2013-04-11 06:43:00,60.1,59.5,29.94,NE,44,2.0,4.0,98,0.00,,,0.02,meteohub,2013-04-11 10:43:00,
2013-04-11 06:48:00,59.9,59.4,29.94,ENE,60,2.0,4.0,98,0.00,,,0.02,meteohub,2013-04-11 10:48:00,
2013-04-11 06:53:00,59.7,59.2,29.94,ENE,60,1.0,3.0,98,0.00,,,0.02,meteohub,2013-04-11 10:53:00,
2013-04-11 06:58:00,59.5,59.0,29.94,ENE,67,0.0,3.0,98,0.00,,,0.02,meteohub,2013-04-11 10:58:00,
2013-04-11 07:03:00,59.5,59.0,29.94,ENE,67,0.0,3.0,98,0.00,,,0.02,meteohub,2013-04-11 11:03:00,
2013-04-11 07:08:00,59.5,59.0,29.94,ENE,67,0.0,3.0,98,0.00,,,0.02,meteohub,2013-04-11 11:08:00,
2013-04-11 07:13:00,59.5,59.0,29.94,NNE,29,1.0,2.0,98,0.00,,,0.02,meteohub,2013-04-11 11:13:00,
2013-04-11 07:18:00,59.5,59.0,29.94,NE,51,3.0,3.0,98,0.00,,,0.02,meteohub,2013-04-11 11:18:00,
2013-04-11 07:23:00,59.4,58.8,29.94,ENE,68,2.0,3.0,98,0.00,,,0.02,meteohub,2013-04-11 11:23:00,
2013-04-11 07:28:00,59.4,58.8,29.94,NE,54,2.0,6.0,98,0.00,,,0.02,meteohub,2013-04-11 11:28:00,
2013-04-11 07:33:00,59.4,58.8,29.94,ENE,63,2.0,6.0,98,0.00,,,0.02,meteohub,2013-04-11 11:33:00,
2013-04-11 07:38:00,59.5,59.0,29.94,NE,46,2.0,6.0,98,0.00,,,0.02,meteohub,2013-04-11 11:38:00,
2013-04-11 07:43:00,59.5,59.0,29.94,NE,55,3.0,6.0,98,0.00,,,0.02,meteohub,2013-04-11 11:43:00,
2013-04-11 07:48:00,59.5,59.0,29.94,NE,56,2.0,6.0,98,0.00,,,0.02,meteohub,2013-04-11 11:48:00,
2013-04-11 07:53:00,59.5,59.0,29.94,ENE,72,2.0,5.0,98,0.00,,,0.02,meteohub,2013-04-11 11:53:00,
2013-04-11 07:58:00,59.5,58.6,29.94,NE,50,3.0,5.0,97,0.00,,,0.02,meteohub,2013-04-11 11:58:00,
2013-04-11 08:03:00,59.5,58.6,29.94,East,80,1.0,6.0,97,0.00,,,0.02,meteohub,2013-04-11 12:03:00,
2013-04-11 08:08:00,59.0,57.9,29.94,East,83,2.0,6.0,96,0.00,,,0.02,meteohub,2013-04-11 12:08:00,
2013-04-11 08:13:00,58.6,57.6,29.94,ENE,61,2.0,6.0,96,0.00,,,0.02,meteohub,2013-04-11 12:13:00,
2013-04-11 08:18:00,58.3,57.2,29.94,NE,46,1.0,5.0,96,0.00,,,0.02,meteohub,2013-04-11 12:18:00,
2013-04-11 08:23:00,58.3,57.2,29.94,NE,46,2.0,6.0,96,0.00,,,0.02,meteohub,2013-04-11 12:23:00,
2013-04-11 08:28:00,58.5,57.0,29.95,ESE,117,1.0,6.0,95,0.00,,,0.02,meteohub,2013-04-11 12:28:00,
2013-04-11 08:33:00,58.5,56.7,29.95,ENE,63,5.0,6.0,94,0.00,,,0.02,meteohub,2013-04-11 12:33:00,
2013-04-11 08:39:00,58.5,56.5,29.95,ENE,74,5.0,9.0,93,0.00,,,0.02,meteohub,2013-04-11 12:39:00,
2013-04-11 08:44:00,58.5,56.1,29.95,ENE,63,4.0,9.0,92,0.00,,,0.02,meteohub,2013-04-11 12:44:00,
2013-04-11 08:49:00,58.6,56.3,29.94,NE,46,4.0,9.0,92,0.00,,,0.02,meteohub,2013-04-11 12:49:00,
2013-04-11 08:54:00,58.5,56.1,29.95,NE,56,4.0,9.0,92,0.00,,,0.02,meteohub,2013-04-11 12:54:00,
2013-04-11 08:59:00,58.5,56.1,29.95,East,92,1.0,9.0,92,0.00,,,0.02,meteohub,2013-04-11 12:59:00,
2013-04-11 09:04:00,58.5,56.1,29.95,NE,50,4.0,9.0,92,0.00,,,0.02,meteohub,2013-04-11 13:04:00,
2013-04-11 09:09:00,58.3,55.6,29.96,NNE,19,5.0,8.0,91,0.00,,,0.02,meteohub,2013-04-11 13:09:00,
2013-04-11 09:14:00,58.1,55.2,29.96,East,96,2.0,7.0,90,0.00,,,0.02,meteohub,2013-04-11 13:14:00,
2013-04-11 09:19:00,57.9,54.7,29.96,NE,46,2.0,7.0,89,0.00,,,0.02,meteohub,2013-04-11 13:19:00,
2013-04-11 09:24:00,57.9,54.3,29.96,NE,52,8.0,8.0,88,0.00,,,0.02,meteohub,2013-04-11 13:24:00,
2013-04-11 09:29:00,57.9,54.7,29.97,NNE,25,4.0,10.0,89,0.00,,,0.02,meteohub,2013-04-11 13:29:00,
2013-04-11 09:34:00,57.6,54.0,29.97,NE,43,4.0,10.0,88,0.00,,,0.02,meteohub,2013-04-11 13:34:00,
2013-04-11 09:39:00,57.4,53.6,29.97,ENE,63,5.0,10.0,87,0.00,,,0.02,meteohub,2013-04-11 13:39:00,
2013-04-11 09:44:00,56.8,53.1,29.97,NE,53,4.0,9.0,87,0.00,,,0.02,meteohub,2013-04-11 13:44:00,
2013-04-11 09:49:00,56.7,53.1,29.98,NE,41,3.0,12.0,88,0.00,,,0.02,meteohub,2013-04-11 13:49:00,
2013-04-11 09:54:00,56.5,52.9,29.98,NE,39,2.0,12.0,88,0.00,,,0.02,meteohub,2013-04-11 13:54:00,
2013-04-11 09:59:00,56.5,52.7,29.98,ENE,67,4.0,12.0,87,0.00,,,0.02,meteohub,2013-04-11 13:59:00,
2013-04-11 10:04:00,56.3,52.5,29.98,North,6,5.0,9.0,87,0.00,,,0.02,meteohub,2013-04-11 14:04:00,
2013-04-11 10:09:00,56.1,52.3,29.99,NNE,25,8.0,9.0,87,0.00,,,0.02,meteohub,2013-04-11 14:09:00,
2013-04-11 10:14:00,55.9,52.2,29.99,NE,46,5.0,11.0,87,0.00,,,0.02,meteohub,2013-04-11 14:14:00,
2013-04-11 10:19:00,55.9,51.4,29.99,ENE,74,6.0,11.0,85,0.00,,,0.02,meteohub,2013-04-11 14:19:00,
2013-04-11 10:24:00,56.1,52.0,29.99,ENE,65,6.0,11.0,86,0.00,,,0.02,meteohub,2013-04-11 14:24:00,
2013-04-11 10:29:00,56.1,51.6,29.99,ENE,63,7.0,10.0,85,0.00,,,0.02,meteohub,2013-04-11 14:29:00,
2013-04-11 10:34:00,55.9,51.4,29.99,NE,34,3.0,11.0,85,0.00,,,0.02,meteohub,2013-04-11 14:34:00,
2013-04-11 10:39:00,55.9,51.3,29.99,ENE,74,3.0,11.0,84,0.00,,,0.02,meteohub,2013-04-11 14:39:00,
2013-04-11 10:44:00,55.9,51.3,29.99,ENE,58,4.0,11.0,84,0.00,,,0.02,meteohub,2013-04-11 14:44:00,
2013-04-11 10:49:00,55.9,50.5,29.99,ENE,57,6.0,10.0,82,0.00,,,0.02,meteohub,2013-04-11 14:49:00,
2013-04-11 10:54:00,56.3,50.5,30.00,East,86,5.0,10.0,81,0.00,,,0.02,meteohub,2013-04-11 14:54:00,
2013-04-11 10:59:00,56.3,49.8,29.99,NE,47,3.0,9.0,79,0.00,,,0.02,meteohub,2013-04-11 14:59:00,
2013-04-11 11:04:00,56.3,49.1,29.99,East,85,3.0,8.0,77,0.00,,,0.02,meteohub,2013-04-11 15:04:00,
2013-04-11 11:09:00,56.5,49.6,30.00,East,89,3.0,8.0,78,0.00,,,0.02,meteohub,2013-04-11 15:09:00,
2013-04-11 11:14:00,56.5,49.3,30.00,East,83,4.0,8.0,77,0.00,,,0.02,meteohub,2013-04-11 15:14:00,
2013-04-11 11:19:00,56.5,49.3,29.99,NE,39,5.0,8.0,77,0.00,,,0.02,meteohub,2013-04-11 15:19:00,
2013-04-11 11:24:00,56.7,49.5,29.99,ENE,61,1.0,8.0,77,0.00,,,0.02,meteohub,2013-04-11 15:24:00,
2013-04-11 11:29:00,57.0,50.2,30.00,East,98,1.0,8.0,78,0.00,,,0.02,meteohub,2013-04-11 15:29:00,
2013-04-11 11:34:00,57.2,49.6,30.00,ENE,63,2.0,8.0,76,0.00,,,0.02,meteohub,2013-04-11 15:34:00,
2013-04-11 11:39:00,57.4,49.5,30.00,ENE,76,2.0,7.0,75,0.00,,,0.02,meteohub,2013-04-11 15:39:00,
2013-04-11 11:44:00,57.7,50.2,30.00,East,95,2.0,6.0,76,0.00,,,0.02,meteohub,2013-04-11 15:44:00,
2013-04-11 11:49:00,57.7,50.2,30.00,ENE,70,2.0,6.0,76,0.00,,,0.02,meteohub,2013-04-11 15:49:00,
2013-04-11 11:54:00,57.9,50.4,30.00,NNE,26,6.0,6.0,76,0.00,,,0.02,meteohub,2013-04-11 15:54:00,
2013-04-11 11:59:00,57.9,49.6,30.00,NE,48,3.0,8.0,74,0.00,,,0.02,meteohub,2013-04-11 15:59:00,
2013-04-11 12:04:00,58.3,50.4,30.00,NE,46,4.0,9.0,75,0.00,,,0.02,meteohub,2013-04-11 16:04:00,
2013-04-11 12:09:00,58.3,50.0,30.00,NE,46,2.0,9.0,74,0.00,,,0.02,meteohub,2013-04-11 16:09:00,
2013-04-11 12:14:00,58.5,49.8,30.00,NE,50,2.0,9.0,73,0.00,,,0.02,meteohub,2013-04-11 16:14:00,
2013-04-11 12:19:00,58.6,50.4,30.00,ESE,106,3.0,5.0,74,0.00,,,0.02,meteohub,2013-04-11 16:19:00,
2013-04-11 12:24:00,58.8,50.2,30.00,ENE,70,4.0,5.0,73,0.00,,,0.02,meteohub,2013-04-11 16:24:00,
2013-04-11 12:29:00,58.6,50.4,29.99,ENE,74,2.0,6.0,74,0.00,,,0.02,meteohub,2013-04-11 16:29:00,
2013-04-11 12:34:00,58.8,50.5,29.99,NE,55,5.0,6.0,74,0.00,,,0.02,meteohub,2013-04-11 16:34:00,
2013-04-11 12:39:00,58.8,50.5,30.00,NE,50,2.0,6.0,74,0.00,,,0.02,meteohub,2013-04-11 16:39:00,
2013-04-11 12:44:00,59.4,51.4,30.00,ENE,74,2.0,7.0,75,0.00,,,0.02,meteohub,2013-04-11 16:44:00,
2013-04-11 12:49:00,59.4,51.1,30.00,East,98,2.0,7.0,74,0.00,,,0.02,meteohub,2013-04-11 16:49:00,
2013-04-11 12:54:00,59.5,51.3,30.00,East,85,4.0,7.0,74,0.00,,,0.02,meteohub,2013-04-11 16:54:00,
2013-04-11 12:59:00,59.5,51.3,30.00,ENE,71,1.0,5.0,74,0.00,,,0.02,meteohub,2013-04-11 16:59:00,
2013-04-11 13:04:00,59.5,50.9,30.00,East,99,1.0,6.0,73,0.00,,,0.02,meteohub,2013-04-11 17:04:00,
2013-04-11 13:09:00,59.5,51.3,30.00,NE,51,2.0,6.0,74,0.00,,,0.02,meteohub,2013-04-11 17:09:00,
2013-04-11 13:14:00,59.4,50.7,29.99,NE,53,5.0,6.0,73,0.00,,,0.02,meteohub,2013-04-11 17:14:00,
2013-04-11 13:19:00,59.4,50.7,30.00,NE,50,1.0,7.0,73,0.00,,,0.02,meteohub,2013-04-11 17:19:00,
2013-04-11 13:24:00,59.7,51.4,30.00,NE,38,2.0,7.0,74,0.00,,,0.02,meteohub,2013-04-11 17:24:00,
2013-04-11 13:29:00,59.7,51.1,29.99,East,94,5.0,7.0,73,0.00,,,0.02,meteohub,2013-04-11 17:29:00,
2013-04-11 13:35:00,59.7,51.4,29.99,ENE,78,0.0,6.0,74,0.00,,,0.02,meteohub,2013-04-11 17:35:00,
2013-04-11 13:40:00,59.9,51.3,29.99,ESE,108,3.0,6.0,73,0.00,,,0.02,meteohub,2013-04-11 17:40:00,
2013-04-11 13:45:00,60.1,51.8,29.99,SSE,160,3.0,6.0,74,0.00,,,0.02,meteohub,2013-04-11 17:45:00,
2013-04-11 13:50:00,59.5,52.0,30.00,ESE,108,1.0,6.0,76,0.00,,,0.02,meteohub,2013-04-11 17:50:00,
2013-04-11 13:55:00,59.2,52.0,30.00,SE,127,2.0,6.0,77,0.00,,,0.02,meteohub,2013-04-11 17:55:00,
2013-04-11 14:00:00,58.8,52.0,29.99,SSE,153,1.0,5.0,78,0.00,,,0.02,meteohub,2013-04-11 18:00:00,
2013-04-11 14:05:00,58.6,52.2,29.99,East,88,3.0,5.0,79,0.00,,,0.02,meteohub,2013-04-11 18:05:00,
2013-04-11 14:10:00,58.6,52.2,29.99,ESE,108,2.0,5.0,79,0.00,,,0.02,meteohub,2013-04-11 18:10:00,
2013-04-11 14:15:00,58.6,52.2,29.99,ESE,121,2.0,5.0,79,0.00,,,0.02,meteohub,2013-04-11 18:15:00,
2013-04-11 14:20:00,58.8,52.3,29.99,SE,136,1.0,7.0,79,0.00,,,0.02,meteohub,2013-04-11 18:20:00,
2013-04-11 14:25:00,59.0,52.2,29.99,ESE,115,2.0,7.0,78,0.00,,,0.02,meteohub,2013-04-11 18:25:00,
2013-04-11 14:30:00,59.2,52.7,29.99,East,82,4.0,6.0,79,0.00,,,0.02,meteohub,2013-04-11 18:30:00,
2013-04-11 14:35:00,59.2,52.3,29.98,ESE,103,3.0,8.0,78,0.00,,,0.02,meteohub,2013-04-11 18:35:00,
2013-04-11 14:40:00,59.2,52.3,29.98,ENE,71,3.0,8.0,78,0.00,,,0.02,meteohub,2013-04-11 18:40:00,
2013-04-11 14:45:00,59.4,52.5,29.98,SE,141,2.0,8.0,78,0.00,,,0.02,meteohub,2013-04-11 18:45:00,
2013-04-11 14:50:00,59.4,52.5,29.98,ESE,118,5.0,6.0,78,0.00,,,0.02,meteohub,2013-04-11 18:50:00,
2013-04-11 14:55:00,59.0,52.5,29.98,East,101,2.0,6.0,79,0.00,,,0.02,meteohub,2013-04-11 18:55:00,
2013-04-11 15:00:00,58.8,52.7,29.99,ENE,78,3.0,6.0,80,0.00,,,0.02,meteohub,2013-04-11 19:00:00,
2013-04-11 15:05:00,58.8,52.3,29.98,East,96,4.0,6.0,79,0.00,,,0.02,meteohub,2013-04-11 19:05:00,
2013-04-11 15:10:00,58.6,52.2,29.98,ESE,121,4.0,7.0,79,0.00,,,0.02,meteohub,2013-04-11 19:10:00,
2013-04-11 15:15:00,58.8,52.7,29.98,ESE,108,2.0,7.0,80,0.00,,,0.02,meteohub,2013-04-11 19:15:00,
2013-04-11 15:20:00,58.6,52.5,29.98,ESE,117,2.0,7.0,80,0.00,,,0.02,meteohub,2013-04-11 19:20:00,
2013-04-11 15:25:00,58.6,52.5,29.98,ESE,106,2.0,5.0,80,0.00,,,0.02,meteohub,2013-04-11 19:25:00,
2013-04-11 15:30:00,58.5,52.3,29.98,ESE,113,4.0,5.0,80,0.00,,,0.02,meteohub,2013-04-11 19:30:00,
2013-04-11 15:35:00,58.3,52.5,29.97,East,81,2.0,5.0,81,0.00,,,0.02,meteohub,2013-04-11 19:35:00,
2013-04-11 15:40:00,58.5,52.3,29.97,ESE,108,4.0,7.0,80,0.00,,,0.02,meteohub,2013-04-11 19:40:00,
2013-04-11 15:45:00,58.3,52.5,29.97,East,82,4.0,7.0,81,0.00,,,0.02,meteohub,2013-04-11 19:45:00,
2013-04-11 15:50:00,58.3,52.5,29.98,East,85,3.0,7.0,81,0.00,,,0.02,meteohub,2013-04-11 19:50:00,
2013-04-11 15:55:00,58.3,52.2,29.98,ESE,106,4.0,8.0,80,0.00,,,0.02,meteohub,2013-04-11 19:55:00,
2013-04-11 16:00:00,57.9,51.8,29.98,ESE,115,4.0,8.0,80,0.00,,,0.02,meteohub,2013-04-11 20:00:00,
2013-04-11 16:05:00,57.6,51.1,29.98,ESE,120,2.0,8.0,79,0.00,,,0.02,meteohub,2013-04-11 20:05:00,
2013-04-11 16:10:00,57.0,50.2,29.98,SE,127,5.0,12.0,78,0.00,,,0.02,meteohub,2013-04-11 20:10:00,
2013-04-11 16:15:00,56.5,50.0,29.99,SE,127,4.0,12.0,79,0.00,,,0.02,meteohub,2013-04-11 20:15:00,
2013-04-11 16:20:00,55.8,50.0,29.99,East,100,2.0,12.0,81,0.00,,,0.02,meteohub,2013-04-11 20:20:00,
2013-04-11 16:25:00,55.2,50.2,29.99,East,96,5.0,8.0,83,0.00,,,0.02,meteohub,2013-04-11 20:25:00,
2013-04-11 16:30:00,54.7,50.0,29.99,East,97,7.0,8.0,84,0.00,,,0.02,meteohub,2013-04-11 20:30:00,
2013-04-11 16:35:00,54.1,50.0,29.98,East,89,4.0,9.0,86,0.00,,,0.02,meteohub,2013-04-11 20:35:00,
2013-04-11 16:40:00,54.0,49.8,29.98,ESE,110,8.0,13.0,86,0.00,,,0.02,meteohub,2013-04-11 20:40:00,
2013-04-11 16:45:00,53.6,49.8,29.99,East,82,8.0,13.0,87,0.00,,,0.02,meteohub,2013-04-11 20:45:00,
2013-04-11 16:50:00,53.1,49.6,29.99,East,89,3.0,13.0,88,0.00,,,0.02,meteohub,2013-04-11 20:50:00,
2013-04-11 16:55:00,53.1,49.6,29.99,East,97,5.0,11.0,88,0.00,,,0.02,meteohub,2013-04-11 20:55:00,
2013-04-11 17:00:00,53.2,49.8,29.99,ESE,117,6.0,11.0,88,0.00,,,0.02,meteohub,2013-04-11 21:00:00,
2013-04-11 17:06:00,53.1,49.3,30.00,SE,128,5.0,10.0,87,0.00,,,0.02,meteohub,2013-04-11 21:06:00,
2013-04-11 17:11:00,52.7,49.3,30.00,ESE,102,5.0,10.0,88,0.00,,,0.02,meteohub,2013-04-11 21:11:00,
2013-04-11 17:16:00,52.3,48.6,30.00,ESE,120,3.0,11.0,87,0.00,,,0.02,meteohub,2013-04-11 21:16:00,
2013-04-11 17:21:00,52.2,48.7,30.00,SE,140,1.0,12.0,88,0.00,,,0.02,meteohub,2013-04-11 21:21:00,
2013-04-11 17:27:00,52.2,48.7,30.01,SE,129,2.0,12.0,88,0.00,,,0.02,meteohub,2013-04-11 21:27:00,
2013-04-11 17:32:00,52.2,48.7,30.01,ESE,108,4.0,13.0,88,0.00,,,0.02,meteohub,2013-04-11 21:32:00,
2013-04-11 17:37:00,52.0,48.2,30.01,East,101,5.0,13.0,87,0.00,,,0.02,meteohub,2013-04-11 21:37:00,
2013-04-11 17:42:00,51.6,48.2,30.01,East,101,4.0,13.0,88,0.00,,,0.02,meteohub,2013-04-11 21:42:00,
2013-04-11 17:47:00,51.6,48.2,30.02,ESE,117,5.0,11.0,88,0.00,,,0.02,meteohub,2013-04-11 21:47:00,
2013-04-11 17:52:00,51.3,47.8,30.02,ESE,102,6.0,12.0,88,0.00,,,0.02,meteohub,2013-04-11 21:52:00,
2013-04-11 17:57:00,51.3,47.8,30.02,ESE,104,6.0,12.0,88,0.00,,,0.02,meteohub,2013-04-11 21:57:00,
2013-04-11 18:02:00,50.9,47.5,30.02,SE,129,4.0,12.0,88,0.00,,,0.02,meteohub,2013-04-11 22:02:00,
2013-04-11 18:07:00,50.7,47.3,30.02,ESE,110,6.0,10.0,88,0.00,,,0.02,meteohub,2013-04-11 22:07:00,
2013-04-11 18:12:00,50.5,47.1,30.03,ESE,108,9.0,12.0,88,0.00,,,0.02,meteohub,2013-04-11 22:12:00,
2013-04-11 18:17:00,50.4,46.9,30.03,ESE,110,11.0,12.0,88,0.00,,,0.02,meteohub,2013-04-11 22:17:00,
2013-04-11 18:22:00,49.8,46.8,30.03,SE,136,9.0,16.0,89,0.00,,,0.02,meteohub,2013-04-11 22:22:00,
2013-04-11 18:27:00,49.6,46.6,30.03,ESE,105,3.0,16.0,89,0.00,,,0.02,meteohub,2013-04-11 22:27:00,
2013-04-11 18:32:00,49.5,46.6,30.03,SE,134,10.0,16.0,90,0.00,,,0.02,meteohub,2013-04-11 22:32:00,
2013-04-11 18:37:00,49.3,46.4,30.03,SE,129,3.0,18.0,90,0.00,,,0.02,meteohub,2013-04-11 22:37:00,
2013-04-11 18:42:00,49.3,46.4,30.03,ESE,112,6.0,18.0,90,0.00,,,0.02,meteohub,2013-04-11 22:42:00,
2013-04-11 18:47:00,48.9,46.0,30.03,East,100,3.0,18.0,90,0.00,,,0.02,meteohub,2013-04-11 22:47:00,
2013-04-11 18:52:00,48.7,45.9,30.03,ESE,123,7.0,13.0,90,0.00,,,0.02,meteohub,2013-04-11 22:52:00,
2013-04-11 18:57:00,48.7,45.9,30.03,East,91,5.0,14.0,90,0.00,,,0.02,meteohub,2013-04-11 22:57:00,
2013-04-11 19:02:00,48.7,45.9,30.03,SE,134,6.0,14.0,90,0.00,,,0.02,meteohub,2013-04-11 23:02:00,
2013-04-11 19:07:00,48.7,45.9,30.03,ENE,75,5.0,14.0,90,0.00,,,0.02,meteohub,2013-04-11 23:07:00,
2013-04-11 19:12:00,48.7,45.7,30.03,ESE,110,9.0,12.0,89,0.00,,,0.02,meteohub,2013-04-11 23:12:00,
2013-04-11 19:17:00,48.7,45.9,30.03,ESE,120,2.0,14.0,90,0.00,,,0.02,meteohub,2013-04-11 23:17:00,
2013-04-11 19:22:00,48.6,45.7,30.03,South,186,2.0,14.0,90,0.00,,,0.02,meteohub,2013-04-11 23:22:00,
2013-04-11 19:27:00,48.6,45.7,30.03,SE,138,5.0,14.0,90,0.00,,,0.02,meteohub,2013-04-11 23:27:00,
2013-04-11 19:32:00,48.6,45.7,30.03,East,82,4.0,11.0,90,0.00,,,0.02,meteohub,2013-04-11 23:32:00,
2013-04-11 19:37:00,48.6,45.7,30.03,East,95,8.0,11.0,90,0.00,,,0.02,meteohub,2013-04-11 23:37:00,
2013-04-11 19:42:00,48.4,45.5,30.03,SE,128,4.0,15.0,90,0.00,,,0.02,meteohub,2013-04-11 23:42:00,
2013-04-11 19:47:00,48.4,45.5,30.03,ESE,111,7.0,15.0,90,0.00,,,0.02,meteohub,2013-04-11 23:47:00,
2013-04-11 19:52:00,48.4,45.5,30.03,ESE,120,6.0,15.0,90,0.00,,,0.02,meteohub,2013-04-11 23:52:00,
2013-04-11 19:57:00,48.4,45.5,30.04,ESE,119,3.0,12.0,90,0.00,,,0.02,meteohub,2013-04-11 23:57:00,
2013-04-11 20:03:00,48.0,45.1,30.04,East,94,5.0,13.0,90,0.00,,,0.02,meteohub,2013-04-12 00:03:00,
2013-04-11 20:08:00,48.0,45.1,30.04,ESE,119,5.0,13.0,90,0.00,,,0.02,meteohub,2013-04-12 00:08:00,
2013-04-11 20:13:00,48.0,45.1,30.04,SE,138,7.0,13.0,90,0.00,,,0.02,meteohub,2013-04-12 00:13:00,
2013-04-11 20:18:00,48.0,45.1,30.04,ENE,67,3.0,13.0,90,0.00,,,0.02,meteohub,2013-04-12 00:18:00,
2013-04-11 20:23:00,47.8,45.0,30.04,East,87,6.0,13.0,90,0.00,,,0.02,meteohub,2013-04-12 00:23:00,
2013-04-11 20:28:00,47.8,45.0,30.04,ESE,108,3.0,13.0,90,0.00,,,0.02,meteohub,2013-04-12 00:28:00,
2013-04-11 20:33:00,47.8,45.0,30.04,East,96,6.0,12.0,90,0.00,,,0.02,meteohub,2013-04-12 00:33:00,
2013-04-11 20:38:00,47.8,45.0,30.04,ENE,78,3.0,11.0,90,0.00,,,0.02,meteohub,2013-04-12 00:38:00,
2013-04-11 20:43:00,47.8,45.0,30.04,East,99,7.0,12.0,90,0.00,,,0.02,meteohub,2013-04-12 00:43:00,
2013-04-11 20:48:00,47.8,45.0,30.04,East,86,2.0,12.0,90,0.00,,,0.02,meteohub,2013-04-12 00:48:00,
2013-04-11 20:53:00,47.7,44.6,30.04,East,101,6.0,12.0,89,0.00,,,0.02,meteohub,2013-04-12 00:53:00,
2013-04-11 20:58:00,47.7,44.6,30.04,ESE,104,6.0,10.0,89,0.00,,,0.02,meteohub,2013-04-12 00:58:00,
2013-04-11 21:03:00,47.7,44.2,30.05,ESE,117,2.0,11.0,88,0.00,,,0.02,meteohub,2013-04-12 01:03:00,
2013-04-11 21:08:00,47.7,44.2,30.05,East,95,3.0,11.0,88,0.00,,,0.02,meteohub,2013-04-12 01:08:00,
2013-04-11 21:13:00,47.7,44.2,30.05,SE,124,4.0,11.0,88,0.00,,,0.02,meteohub,2013-04-12 01:13:00,
2013-04-11 21:18:00,47.7,44.2,30.04,ESE,113,4.0,9.0,88,0.00,,,0.02,meteohub,2013-04-12 01:18:00,
2013-04-11 21:23:00,47.7,44.2,30.05,SE,129,3.0,9.0,88,0.00,,,0.02,meteohub,2013-04-12 01:23:00,
2013-04-11 21:28:00,47.7,44.2,30.05,East,89,5.0,9.0,88,0.00,,,0.02,meteohub,2013-04-12 01:28:00,
2013-04-11 21:33:00,47.7,44.2,30.06,ESE,113,5.0,9.0,88,0.00,,,0.02,meteohub,2013-04-12 01:33:00,
2013-04-11 21:38:00,47.7,44.2,30.06,East,101,7.0,11.0,88,0.00,,,0.02,meteohub,2013-04-12 01:38:00,
2013-04-11 21:43:00,47.5,44.1,30.06,ESE,108,4.0,11.0,88,0.00,,,0.02,meteohub,2013-04-12 01:43:00,
2013-04-11 21:48:00,47.5,44.1,30.06,SE,140,1.0,11.0,88,0.00,,,0.02,meteohub,2013-04-12 01:48:00,
2013-04-11 21:53:00,47.5,43.9,30.06,East,100,6.0,9.0,87,0.00,,,0.02,meteohub,2013-04-12 01:53:00,
2013-04-11 21:58:00,47.5,43.9,30.06,ESE,112,4.0,7.0,87,0.00,,,0.02,meteohub,2013-04-12 01:58:00,
2013-04-11 22:03:00,47.5,43.9,30.06,ESE,103,5.0,8.0,87,0.00,,,0.02,meteohub,2013-04-12 02:03:00,
2013-04-11 22:08:00,47.5,43.9,30.06,East,89,5.0,9.0,87,0.00,,,0.02,meteohub,2013-04-12 02:08:00,
2013-04-11 22:13:00,47.5,43.9,30.07,East,97,3.0,9.0,87,0.00,,,0.02,meteohub,2013-04-12 02:13:00,
2013-04-11 22:18:00,47.5,43.5,30.06,ENE,74,2.0,9.0,86,0.00,,,0.02,meteohub,2013-04-12 02:18:00,
2013-04-11 22:23:00,47.5,43.5,30.06,East,86,7.0,8.0,86,0.00,,,0.02,meteohub,2013-04-12 02:23:00,
2013-04-11 22:29:00,47.7,43.7,30.06,East,81,3.0,9.0,86,0.00,,,0.02,meteohub,2013-04-12 02:29:00,
2013-04-11 22:34:00,47.7,43.7,30.06,ESE,105,3.0,9.0,86,0.00,,,0.02,meteohub,2013-04-12 02:34:00,
2013-04-11 22:39:00,47.7,43.3,30.06,East,89,4.0,9.0,85,0.00,,,0.02,meteohub,2013-04-12 02:39:00,
2013-04-11 22:44:00,47.7,43.0,30.06,ESE,103,6.0,10.0,84,0.00,,,0.02,meteohub,2013-04-12 02:44:00,
2013-04-11 22:49:00,47.8,43.2,30.06,ENE,60,5.0,10.0,84,0.00,,,0.02,meteohub,2013-04-12 02:49:00,
2013-04-11 22:54:00,47.8,43.2,30.06,East,95,2.0,10.0,84,0.00,,,0.02,meteohub,2013-04-12 02:54:00,
2013-04-11 22:59:00,47.8,43.2,30.06,ENE,75,2.0,8.0,84,0.00,,,0.02,meteohub,2013-04-12 02:59:00,
2013-04-11 23:04:00,48.0,43.3,30.06,East,85,8.0,8.0,84,0.00,,,0.02,meteohub,2013-04-12 03:04:00,
2013-04-11 23:09:00,48.0,43.2,30.06,ESE,106,4.0,10.0,83,0.00,,,0.02,meteohub,2013-04-12 03:09:00,
2013-04-11 23:14:00,48.2,43.3,30.06,ENE,70,4.0,10.0,83,0.00,,,0.02,meteohub,2013-04-12 03:14:00,
2013-04-11 23:19:00,48.4,43.5,30.06,ESE,102,0.0,10.0,83,0.00,,,0.02,meteohub,2013-04-12 03:19:00,
2013-04-11 23:24:00,48.4,43.2,30.06,East,79,5.0,8.0,82,0.00,,,0.02,meteohub,2013-04-12 03:24:00,
2013-04-11 23:29:00,48.6,43.3,30.06,ESE,112,2.0,8.0,82,0.00,,,0.02,meteohub,2013-04-12 03:29:00,
2013-04-11 23:34:00,48.6,43.0,30.06,East,84,3.0,8.0,81,0.00,,,0.02,meteohub,2013-04-12 03:34:00,
2013-04-11 23:39:00,48.7,43.2,30.05,ENE,63,3.0,9.0,81,0.00,,,0.02,meteohub,2013-04-12 03:39:00,
2013-04-11 23:44:00,48.7,43.2,30.05,East,86,3.0,9.0,81,0.00,,,0.02,meteohub,2013-04-12 03:44:00,
2013-04-11 23:49:00,48.7,43.2,30.05,ESE,104,3.0,9.0,81,0.00,,,0.02,meteohub,2013-04-12 03:49:00,
2013-04-11 23:54:00,48.7,43.2,30.05,East,89,6.0,9.0,81,0.00,,,0.02,meteohub,2013-04-12 03:54:00,
2013-04-11 23:59:00,48.9,43.3,30.05,ESE,110,2.0,10.0,81,0.00,,,0.02,meteohub,2013-04-12 03:59:00,